Meling Ranch Airstrip

Jump to: basic info | weather | comments

Related pages: nearby airports | nearby navaids

Basic information (top)

Codes: MSJG
Location: lon 30.975328, lat -115.737877
Status: small_airport

Weather (top)

Current conditions for General Rodolfo Sánchez Taboada International Airport 103nm (190km) NNE (rec'd 2015/02/02 00:46Z):

MMML 020046Z 28005KT 10SM FEW200 23/02 A3004 RMK 8/001

Airport forecast for General Rodolfo Sánchez Taboada International Airport 103nm (190km) NNE (rec'd 2015/02/01 18:12Z):

TAF MMML 011705Z 0118/0218 30010KT P6SM SKC 
     FM020300 00000KT P6SM SKC

Latest comments (top)

No comments yet for Meling Ranch Airstrip

More... (top)

See also NOTAMs and nearby airports and navaids, or visit the Meling Ranch Airstrip page at the main OurAirports website..